{"data":{"norad_id":37849,"intl_designator":"2011-061A","name":"SUOMI NPP","alt_names":[],"object_type":"PAYLOAD","status":"ACTIVE","operator":null,"country":"US","launch_date":"2011-10-28","launch_site_code":"AFWTR","launch_vehicle":null,"mission":null,"orbit_class":"UNKNOWN","rcs_meters":5.7802,"size_class":null,"mass_kg":null,"dimensions":null,"purposes":["earth_obs"],"wikipedia_slug":null,"has_3d_model":false,"image_url":null,"decayed_at":null,"tle_current":{"epoch":"2026-09-20T03:26:59.865216Z","epoch_age_seconds":45201,"freshness":"FRESH","line1":"1 37849U 11061A   26263.14374844  .00000052  00000+0  45659-4 0  9993","line2":"2 37849  98.8011 203.3913 0002752  65.2893 294.8569 14.19534075771917","mean_motion":14.19534075,"eccentricity":0.0002752,"inclination_deg":98.8011,"raan_deg":203.3913,"arg_perigee_deg":65.2893,"mean_anomaly_deg":294.8569,"bstar":4.5659e-5,"rev_number":77191,"period_min":101.44173538067,"perigee_km":824.94610983966,"apogee_km":828.91177813523,"semimajor_km":7205.0659439874,"source":"CELESTRAK","updated_at":"2026-09-20T09:00:33.214368Z"}}}